| time (UTC) | temp F | wind direction | speed MPH | gust MPH | rain 1hr in | rain 24hr in | rain mn in | humidity % | barometer mb |
| 20260507083039 | 66 | 22 | 0.0 | 3.0 | 0.00 | 0.00 | 0.00 | 42 | 1012.2 |
| 20260507082524 | 66 | 22 | 2.0 | 3.0 | 0.00 | 0.00 | 0.00 | 41 | 1012.3 |
| 20260507082024 | 66 | 5 | 0.0 | 2.0 | 0.00 | 0.00 | 0.00 | 41 | 1012.3 |
| 20260507081544 | 66 | 0 | 0.0 | 1.0 | 0.00 | 0.00 | 0.00 | 41 | 1012.3 |
| 20260507081026 | 66 | 0 | 0.0 | 1.0 | 0.00 | 0.00 | 0.00 | 40 | 1012.3 |
| 20260507080524 | 67 | 0 | 0.0 | 2.0 | 0.00 | 0.00 | 0.00 | 40 | 1012.3 |
| 20260507080043 | 67 | 0 | 0.0 | 2.0 | 0.00 | 0.00 | 0.00 | 40 | 1012.4 |
| 20260507075525 | 67 | 5 | 1.0 | 3.0 | 0.00 | 0.00 | 0.00 | 40 | 1012.4 |
| 20260507075024 | 66 | 0 | 0.0 | 3.0 | 0.00 | 0.00 | 0.00 | 41 | 1012.4 |
| 20260507074541 | 66 | 5 | 1.0 | 3.0 | 0.00 | 0.00 | 0.00 | 42 | 1012.4 |
| 20260507074026 | 66 | 5 | 0.0 | 3.0 | 0.00 | 0.00 | 0.00 | 42 | 1012.5 |
| 20260507073525 | 67 | 0 | 0.0 | 0.0 | 0.00 | 0.00 | 0.00 | 42 | 1012.4 |
| 20260507073046 | 67 | 0 | 0.0 | 0.0 | 0.00 | 0.00 | 0.00 | 42 | 1012.4 |
| 20260507072525 | 67 | 0 | 0.0 | 0.0 | 0.00 | 0.00 | 0.00 | 42 | 1012.4 |
| 20260507072027 | 67 | 0 | 0.0 | 0.0 | 0.00 | 0.00 | 0.00 | 43 | 1012.4 |
| 20260507071539 | 67 | 0 | 0.0 | 0.0 | 0.00 | 0.00 | 0.00 | 42 | 1012.5 |
| 20260507071024 | 67 | 0 | 0.0 | 0.0 | 0.00 | 0.00 | 0.00 | 43 | 1012.5 |
| 20260507070525 | 67 | 0 | 0.0 | 0.0 | 0.00 | 0.00 | 0.00 | 42 | 1012.5 |
| 20260507070042 | 67 | 0 | 0.0 | 0.0 | 0.00 | 0.00 | 0.00 | 42 | 1012.5 |
| 20260507065525 | 67 | 0 | 0.0 | 0.0 | 0.00 | 0.00 | 0.00 | 42 | 1012.4 |
| 20260507065024 | 67 | 0 | 0.0 | 0.0 | 0.00 | 0.00 | 0.00 | 41 | 1012.4 |
| 20260507064552 | 68 | 0 | 0.0 | 0.0 | 0.00 | 0.00 | 0.00 | 40 | 1012.4 |
| 20260507064024 | 68 | 0 | 0.0 | 0.0 | 0.00 | 0.00 | 0.00 | 40 | 1012.4 |
| 20260507063524 | 68 | 0 | 0.0 | 0.0 | 0.00 | 0.00 | 0.00 | 40 | 1012.3 |
| 20260507063047 | 68 | 0 | 0.0 | 0.0 | 0.00 | 0.00 | 0.00 | 40 | 1012.3 |
| 20260507062528 | 68 | 0 | 0.0 | 0.0 | 0.00 | 0.00 | 0.00 | 40 | 1012.2 |
| 20260507062024 | 68 | 0 | 0.0 | 0.0 | 0.00 | 0.00 | 0.00 | 39 | 1012.3 |
| 20260507061541 | 69 | 0 | 0.0 | 0.0 | 0.00 | 0.00 | 0.00 | 40 | 1012.3 |
| 20260507061024 | 69 | 0 | 0.0 | 0.0 | 0.00 | 0.00 | 0.00 | 40 | 1012.3 |
| 20260507060524 | 69 | 0 | 0.0 | 0.0 | 0.00 | 0.00 | 0.00 | 39 | 1012.3 |
| 20260507060039 | 69 | 0 | 0.0 | 0.0 | 0.00 | 0.00 | 0.00 | 38 | 1012.3 |
| 20260507055525 | 69 | 0 | 0.0 | 0.0 | 0.00 | 0.00 | 0.00 | 38 | 1012.3 |
| 20260507055024 | 70 | 0 | 0.0 | 0.0 | 0.00 | 0.00 | 0.00 | 38 | 1012.3 |
| 20260507054539 | 70 | 0 | 0.0 | 0.0 | 0.00 | 0.00 | 0.00 | 38 | 1012.2 |
| 20260507054024 | 70 | 0 | 0.0 | 0.0 | 0.00 | 0.00 | 0.00 | 38 | 1012.2 |
| 20260507053524 | 70 | 0 | 0.0 | 0.0 | 0.00 | 0.00 | 0.00 | 38 | 1012.3 |
| 20260507053045 | 70 | 0 | 0.0 | 0.0 | 0.00 | 0.00 | 0.00 | 37 | 1012.2 |
| 20260507052524 | 70 | 0 | 0.0 | 0.0 | 0.00 | 0.00 | 0.00 | 36 | 1012.2 |
| 20260507052026 | 71 | 0 | 0.0 | 0.0 | 0.00 | 0.00 | 0.00 | 36 | 1012.2 |
| 20260507051540 | 71 | 0 | 0.0 | 0.0 | 0.00 | 0.00 | 0.00 | 36 | 1012.3 |
| 20260507051026 | 71 | 0 | 0.0 | 0.0 | 0.00 | 0.00 | 0.00 | 35 | 1012.2 |
| 20260507050524 | 72 | 0 | 0.0 | 1.0 | 0.00 | 0.00 | 0.00 | 35 | 1012.2 |
| 20260507050041 | 72 | 0 | 0.0 | 1.0 | 0.00 | 0.00 | 0.00 | 34 | 1012.1 |
| 20260507045524 | 72 | 0 | 0.0 | 1.0 | 0.00 | 0.00 | 0.00 | 34 | 1012.1 |
| 20260507045024 | 72 | 0 | 0.0 | 0.0 | 0.00 | 0.00 | 0.00 | 34 | 1012.0 |
| 20260507044540 | 73 | 0 | 0.0 | 0.0 | 0.00 | 0.00 | 0.00 | 33 | 1012.0 |
| 20260507044023 | 73 | 0 | 0.0 | 1.0 | 0.00 | 0.00 | 0.00 | 32 | 1012.0 |
| 20260507043525 | 73 | 0 | 0.0 | 1.0 | 0.00 | 0.00 | 0.00 | 32 | 1012.0 |
| 20260507043041 | 73 | 0 | 0.0 | 1.0 | 0.00 | 0.00 | 0.00 | 31 | 1011.9 |
| 20260507042524 | 74 | 0 | 0.0 | 2.0 | 0.00 | 0.00 | 0.00 | 30 | 1011.9 |
| 20260507042024 | 74 | 0 | 0.0 | 2.0 | 0.00 | 0.00 | 0.00 | 30 | 1011.9 |
| 20260507041545 | 75 | 0 | 0.0 | 1.0 | 0.00 | 0.00 | 0.00 | 30 | 1011.9 |
| 20260507041025 | 75 | 0 | 0.0 | 1.0 | 0.00 | 0.00 | 0.00 | 29 | 1011.8 |
| 20260507040523 | 75 | 0 | 0.0 | 2.0 | 0.00 | 0.00 | 0.00 | 28 | 1011.8 |
| 20260507040042 | 75 | 0 | 0.0 | 2.0 | 0.00 | 0.00 | 0.00 | 28 | 1011.6 |
| 20260507035526 | 76 | 0 | 0.0 | 2.0 | 0.00 | 0.00 | 0.00 | 28 | 1011.7 |
| 20260507035024 | 76 | 0 | 0.0 | 2.0 | 0.00 | 0.00 | 0.00 | 27 | 1011.6 |
| 20260507034544 | 76 | 225 | 0.0 | 2.0 | 0.00 | 0.00 | 0.00 | 26 | 1011.5 |
| 20260507034024 | 76 | 225 | 0.0 | 2.0 | 0.00 | 0.00 | 0.00 | 26 | 1011.5 |
| 20260507033525 | 76 | 0 | 0.0 | 2.0 | 0.00 | 0.00 | 0.00 | 26 | 1011.4 |
| 20260507033057 | 77 | 225 | 0.0 | 1.0 | 0.00 | 0.00 | 0.00 | 26 | 1011.4 |
| 20260507032524 | 77 | 0 | 0.0 | 1.0 | 0.00 | 0.00 | 0.00 | 26 | 1011.4 |
| 20260507032024 | 77 | 0 | 0.0 | 2.0 | 0.00 | 0.00 | 0.00 | 25 | 1011.3 |
| 20260507031539 | 77 | 0 | 0.0 | 2.0 | 0.00 | 0.00 | 0.00 | 25 | 1011.3 |
| 20260507031024 | 77 | 225 | 0.0 | 2.0 | 0.00 | 0.00 | 0.00 | 25 | 1011.2 |
| 20260507030525 | 78 | 225 | 0.0 | 3.0 | 0.00 | 0.00 | 0.00 | 25 | 1011.1 |
| 20260507030040 | 78 | 0 | 0.0 | 3.0 | 0.00 | 0.00 | 0.00 | 24 | 1011.1 |
| 20260507025524 | 78 | 265 | 0.0 | 3.0 | 0.00 | 0.00 | 0.00 | 24 | 1011.1 |
| 20260507025024 | 78 | 265 | 1.0 | 4.0 | 0.00 | 0.00 | 0.00 | 24 | 1011.1 |
| 20260507024553 | 78 | 275 | 1.0 | 4.0 | 0.00 | 0.00 | 0.00 | 23 | 1010.9 |
| 20260507024024 | 79 | 250 | 2.0 | 4.0 | 0.00 | 0.00 | 0.00 | 23 | 1010.8 |
| 20260507023524 | 79 | 246 | 1.0 | 3.0 | 0.00 | 0.00 | 0.00 | 23 | 1010.8 |
| 20260507023040 | 79 | 241 | 1.0 | 3.0 | 0.00 | 0.00 | 0.00 | 22 | 1010.9 |
| 20260507022524 | 80 | 217 | 1.0 | 3.0 | 0.00 | 0.00 | 0.00 | 22 | 1010.7 |
| 20260507022024 | 80 | 0 | 0.0 | 3.0 | 0.00 | 0.00 | 0.00 | 22 | 1010.6 |
| 20260507021540 | 80 | 0 | 1.0 | 4.0 | 0.00 | 0.00 | 0.00 | 22 | 1010.6 |
| 20260507021025 | 80 | 286 | 0.0 | 4.0 | 0.00 | 0.00 | 0.00 | 22 | 1010.6 |
| 20260507020525 | 81 | 300 | 1.0 | 4.0 | 0.00 | 0.00 | 0.00 | 21 | 1010.5 |
| 20260507020039 | 81 | 291 | 1.0 | 4.0 | 0.00 | 0.00 | 0.00 | 21 | 1010.5 |
| 20260507015524 | 81 | 274 | 2.0 | 4.0 | 0.00 | 0.00 | 0.00 | 21 | 1010.4 |
| 20260507015026 | 81 | 223 | 2.0 | 8.0 | 0.00 | 0.00 | 0.00 | 20 | 1010.4 |
| 20260507014543 | 81 | 277 | 1.0 | 8.0 | 0.00 | 0.00 | 0.00 | 21 | 1010.4 |
| 20260507014024 | 82 | 305 | 3.0 | 7.0 | 0.00 | 0.00 | 0.00 | 21 | 1010.4 |
| 20260507013524 | 82 | 292 | 1.0 | 7.0 | 0.00 | 0.00 | 0.00 | 21 | 1010.5 |
| 20260507013041 | 82 | 263 | 2.0 | 7.0 | 0.00 | 0.00 | 0.00 | 20 | 1010.5 |
| 20260507012525 | 82 | 267 | 2.0 | 6.0 | 0.00 | 0.00 | 0.00 | 20 | 1010.4 |
| 20260507012025 | 83 | 330 | 2.0 | 6.0 | 0.00 | 0.00 | 0.00 | 20 | 1010.4 |
| 20260507011540 | 83 | 288 | 1.0 | 6.0 | 0.00 | 0.00 | 0.00 | 20 | 1010.5 |
| 20260507011024 | 83 | 300 | 2.0 | 7.0 | 0.00 | 0.00 | 0.00 | 20 | 1010.4 |
| 20260507010528 | 82 | 294 | 2.0 | 7.0 | 0.00 | 0.00 | 0.00 | 20 | 1010.4 |
| 20260507010041 | 82 | 311 | 3.0 | 8.0 | 0.00 | 0.00 | 0.00 | 20 | 1010.3 |
| 20260507005525 | 82 | 251 | 2.0 | 8.0 | 0.00 | 0.00 | 0.00 | 20 | 1010.4 |
| 20260507005024 | 82 | 287 | 1.0 | 6.0 | 0.00 | 0.00 | 0.00 | 20 | 1010.3 |
| 20260507004538 | 82 | 0 | 1.0 | 6.0 | 0.00 | 0.00 | 0.00 | 20 | 1010.3 |
| 20260507004024 | 82 | 329 | 2.0 | 8.0 | 0.00 | 0.00 | 0.00 | 20 | 1010.4 |
| 20260507003526 | 82 | 290 | 2.0 | 8.0 | 0.00 | 0.00 | 0.00 | 20 | 1010.4 |
| 20260507003038 | 82 | 246 | 3.0 | 8.0 | 0.00 | 0.00 | 0.00 | 20 | 1010.6 |
| 20260507002522 | 82 | 215 | 2.0 | 9.0 | 0.00 | 0.00 | 0.00 | 20 | 1010.3 |
| 20260507002025 | 83 | 237 | 4.0 | 9.0 | 0.00 | 0.00 | 0.00 | 19 | 1010.4 |
| 20260507001603 | 83 | 0 | 3.0 | 9.0 | 0.00 | 0.00 | 0.00 | 20 | 1010.3 |
| 20260507001024 | 83 | 228 | 2.0 | 7.0 | 0.00 | 0.00 | 0.00 | 20 | 1010.4 |
| 20260507000524 | 82 | 184 | 1.0 | 8.0 | 0.00 | 0.00 | 0.00 | 20 | 1010.4 |
| 20260507000038 | 82 | 0 | 2.0 | 8.0 | 0.00 | 0.00 | 0.00 | 20 | 1010.4 |
| 20260506235526 | 83 | 271 | 4.0 | 8.0 | 0.00 | 0.00 | 0.00 | 20 | 1010.5 |
| 20260506235028 | 82 | 332 | 2.0 | 7.0 | 0.00 | 0.00 | 0.00 | 20 | 1010.5 |
| 20260506234547 | 83 | 351 | 2.0 | 10.0 | 0.00 | 0.00 | 0.00 | 19 | 1010.4 |
| 20260506234025 | 83 | 319 | 2.0 | 10.0 | 0.00 | 0.00 | 0.00 | 19 | 1010.5 |
| 20260506233524 | 83 | 332 | 5.0 | 10.0 | 0.00 | 0.00 | 0.00 | 19 | 1010.5 |
| 20260506233039 | 84 | 215 | 2.0 | 8.0 | 0.00 | 0.00 | 0.00 | 19 | 1010.4 |
| 20260506232523 | 83 | 266 | 1.0 | 8.0 | 0.00 | 0.00 | 0.00 | 20 | 1010.4 |
| 20260506232027 | 83 | 301 | 2.0 | 8.0 | 0.00 | 0.00 | 0.00 | 20 | 1010.5 |
| 20260506231539 | 83 | 288 | 3.0 | 8.0 | 0.00 | 0.00 | 0.00 | 20 | 1010.6 |
| 20260506231025 | 83 | 270 | 1.0 | 9.0 | 0.00 | 0.00 | 0.00 | 19 | 1010.7 |
| 20260506230524 | 84 | 296 | 2.0 | 9.0 | 0.00 | 0.00 | 0.00 | 19 | 1010.8 |
| 20260506230040 | 83 | 284 | 2.0 | 9.0 | 0.00 | 0.00 | 0.00 | 19 | 1010.8 |
| 20260506225524 | 83 | 164 | 0.0 | 8.0 | 0.00 | 0.00 | 0.00 | 20 | 1010.9 |
| 20260506225024 | 83 | 211 | 2.0 | 8.0 | 0.00 | 0.00 | 0.00 | 20 | 1011.1 |
| 20260506224542 | 83 | 273 | 3.0 | 8.0 | 0.00 | 0.00 | 0.00 | 20 | 1011.0 |
| 20260506224021 | 82 | 231 | 0.0 | 10.0 | 0.00 | 0.00 | 0.00 | 20 | 1011.0 |
| 20260506223524 | 82 | 348 | 1.0 | 10.0 | 0.00 | 0.00 | 0.00 | 21 | 1011.1 |
| 20260506223035 | 82 | 299 | 5.0 | 11.0 | 0.00 | 0.00 | 0.00 | 21 | 1011.2 |
| 20260506222524 | 82 | 0 | 3.0 | 11.0 | 0.00 | 0.00 | 0.00 | 21 | 1011.2 |
| 20260506222023 | 82 | 352 | 1.0 | 8.0 | 0.00 | 0.00 | 0.00 | 21 | 1011.3 |
| 20260506221542 | 81 | 60 | 2.0 | 8.0 | 0.00 | 0.00 | 0.00 | 21 | 1011.2 |
| 20260506221026 | 81 | 68 | 4.0 | 8.0 | 0.00 | 0.00 | 0.00 | 21 | 1011.3 |
| 20260506220525 | 81 | 54 | 3.0 | 9.0 | 0.00 | 0.00 | 0.00 | 21 | 1011.4 |
| 20260506220048 | 81 | 323 | 3.0 | 11.0 | 0.00 | 0.00 | 0.00 | 21 | 1011.5 |
| 20260506215523 | 82 | 15 | 4.0 | 11.0 | 0.00 | 0.00 | 0.00 | 21 | 1011.6 |
| 20260506215025 | 82 | 327 | 4.0 | 11.0 | 0.00 | 0.00 | 0.00 | 21 | 1011.6 |
| 20260506214539 | 82 | 315 | 4.0 | 11.0 | 0.00 | 0.00 | 0.00 | 20 | 1011.7 |
| 20260506214028 | 83 | 194 | 3.0 | 8.0 | 0.00 | 0.00 | 0.00 | 21 | 1011.8 |
| 20260506213525 | 82 | 221 | 0.0 | 9.0 | 0.00 | 0.00 | 0.00 | 21 | 1011.9 |
| 20260506213038 | 82 | 0 | 1.0 | 10.0 | 0.00 | 0.00 | 0.00 | 21 | 1012.0 |
| 20260506212527 | 81 | 279 | 3.0 | 10.0 | 0.00 | 0.00 | 0.00 | 21 | 1012.1 |
| 20260506212024 | 81 | 44 | 3.0 | 10.0 | 0.00 | 0.00 | 0.00 | 22 | 1012.1 |
| 20260506211552 | 81 | 352 | 2.0 | 9.0 | 0.00 | 0.00 | 0.00 | 22 | 1012.1 |
| 20260506211024 | 80 | 65 | 4.0 | 11.0 | 0.00 | 0.00 | 0.00 | 22 | 1012.2 |
| 20260506210524 | 80 | 44 | 3.0 | 11.0 | 0.00 | 0.00 | 0.00 | 21 | 1012.3 |
| 20260506210043 | 80 | 0 | 3.0 | 10.0 | 0.00 | 0.00 | 0.00 | 22 | 1012.4 |
| 20260506205524 | 80 | 327 | 3.0 | 14.0 | 0.00 | 0.00 | 0.00 | 22 | 1012.4 |
| 20260506205024 | 81 | 320 | 6.0 | 14.0 | 0.00 | 0.00 | 0.00 | 22 | 1012.5 |
| 20260506204542 | 81 | 333 | 3.0 | 9.0 | 0.00 | 0.00 | 0.00 | 23 | 1012.6 |
| 20260506204023 | 81 | 90 | 1.0 | 9.0 | 0.00 | 0.00 | 0.00 | 23 | 1012.5 |
| 20260506203524 | 81 | 37 | 2.0 | 10.0 | 0.00 | 0.00 | 0.00 | 22 | 1012.7 |
| 20260506203041 | 81 | 298 | 3.0 | 11.0 | 0.00 | 0.00 | 0.00 | 22 | 1012.7 |
| 20260506202525 | 80 | 258 | 4.0 | 11.0 | 0.00 | 0.00 | 0.00 | 23 | 1012.7 |
| 20260506202025 | 80 | 352 | 3.0 | 11.0 | 0.00 | 0.00 | 0.00 | 23 | 1012.9 |
| 20260506201537 | 79 | 274 | 2.0 | 9.0 | 0.00 | 0.00 | 0.00 | 24 | 1012.8 |
| 20260506201025 | 79 | 348 | 4.0 | 9.0 | 0.00 | 0.00 | 0.00 | 24 | 1012.9 |
| 20260506200524 | 81 | 56 | 3.0 | 6.0 | 0.00 | 0.00 | 0.00 | 22 | 1012.9 |
| 20260506200038 | 80 | 168 | 2.0 | 9.0 | 0.00 | 0.00 | 0.00 | 24 | 1012.9 |
| 20260506195525 | 80 | 238 | 2.0 | 9.0 | 0.00 | 0.00 | 0.00 | 23 | 1013.1 |
| 20260506195025 | 81 | 288 | 1.0 | 4.0 | 0.00 | 0.00 | 0.00 | 24 | 1013.1 |
| 20260506194544 | 79 | 175 | 1.0 | 9.0 | 0.00 | 0.00 | 0.00 | 24 | 1013.1 |
| 20260506194027 | 78 | 134 | 2.0 | 10.0 | 0.00 | 0.00 | 0.00 | 24 | 1013.2 |
| 20260506193524 | 78 | 298 | 4.0 | 10.0 | 0.00 | 0.00 | 0.00 | 25 | 1013.2 |
| 20260506193045 | 79 | 278 | 3.0 | 9.0 | 0.00 | 0.00 | 0.00 | 24 | 1013.3 |
| 20260506192524 | 79 | 331 | 2.0 | 7.0 | 0.00 | 0.00 | 0.00 | 25 | 1013.4 |
| 20260506192024 | 78 | 0 | 2.0 | 9.0 | 0.00 | 0.00 | 0.00 | 25 | 1013.4 |
| 20260506191539 | 77 | 120 | 1.0 | 10.0 | 0.00 | 0.00 | 0.00 | 26 | 1013.5 |
| 20260506191025 | 77 | 315 | 2.0 | 10.0 | 0.00 | 0.00 | 0.00 | 25 | 1013.5 |
| 20260506190525 | 77 | 323 | 5.0 | 11.0 | 0.00 | 0.00 | 0.00 | 25 | 1013.5 |
| 20260506190039 | 77 | 298 | 3.0 | 11.0 | 0.00 | 0.00 | 0.00 | 25 | 1013.5 |
| 20260506185524 | 77 | 328 | 2.0 | 10.0 | 0.00 | 0.00 | 0.00 | 25 | 1013.6 |
| 20260506185025 | 78 | 325 | 3.0 | 7.0 | 0.00 | 0.00 | 0.00 | 26 | 1013.6 |
| 20260506184544 | 78 | 26 | 2.0 | 7.0 | 0.00 | 0.00 | 0.00 | 25 | 1013.7 |
| 20260506184027 | 77 | 188 | 2.0 | 8.0 | 0.00 | 0.00 | 0.00 | 27 | 1013.9 |
| 20260506183527 | 78 | 331 | 3.0 | 11.0 | 0.00 | 0.00 | 0.00 | 27 | 1014.0 |
| 20260506183042 | 77 | 167 | 4.0 | 12.0 | 0.00 | 0.00 | 0.00 | 27 | 1014.0 |
| 20260506182524 | 78 | 183 | 6.0 | 12.0 | 0.00 | 0.00 | 0.00 | 27 | 1014.1 |
| 20260506182026 | 77 | 196 | 4.0 | 10.0 | 0.00 | 0.00 | 0.00 | 27 | 1014.3 |
| 20260506181554 | 76 | 216 | 3.0 | 10.0 | 0.00 | 0.00 | 0.00 | 29 | 1014.2 |
| 20260506181025 | 76 | 205 | 2.0 | 9.0 | 0.00 | 0.00 | 0.00 | 29 | 1014.4 |
| 20260506180526 | 74 | 257 | 3.0 | 10.0 | 0.00 | 0.00 | 0.00 | 30 | 1014.2 |
| 20260506180037 | 75 | 324 | 5.0 | 10.0 | 0.00 | 0.00 | 0.00 | 30 | 1014.3 |
| 20260506175527 | 75 | 289 | 2.0 | 8.0 | 0.00 | 0.00 | 0.00 | 30 | 1014.3 |
| 20260506175025 | 75 | 0 | 2.0 | 8.0 | 0.00 | 0.00 | 0.00 | 30 | 1014.3 |
| 20260506174538 | 75 | 220 | 2.0 | 8.0 | 0.00 | 0.00 | 0.00 | 31 | 1014.3 |
| 20260506174025 | 75 | 45 | 1.0 | 7.0 | 0.00 | 0.00 | 0.00 | 31 | 1014.3 |
| 20260506173525 | 75 | 314 | 2.0 | 7.0 | 0.00 | 0.00 | 0.00 | 31 | 1014.3 |
| 20260506173105 | 74 | 298 | 2.0 | 5.0 | 0.00 | 0.00 | 0.00 | 31 | 1014.3 |
| 20260506172526 | 74 | 327 | 1.0 | 6.0 | 0.00 | 0.00 | 0.00 | 31 | 1014.2 |
| 20260506172024 | 73 | 300 | 0.0 | 6.0 | 0.00 | 0.00 | 0.00 | 32 | 1014.2 |
| 20260506171546 | 73 | 5 | 1.0 | 5.0 | 0.00 | 0.00 | 0.00 | 32 | 1014.2 |
| 20260506171025 | 73 | 344 | 1.0 | 6.0 | 0.00 | 0.00 | 0.00 | 32 | 1014.2 |
| 20260506170525 | 73 | 305 | 1.0 | 6.0 | 0.00 | 0.00 | 0.00 | 32 | 1014.2 |
| 20260506170044 | 74 | 324 | 1.0 | 7.0 | 0.00 | 0.00 | 0.00 | 31 | 1014.2 |
| 20260506165525 | 74 | 159 | 2.0 | 7.0 | 0.00 | 0.00 | 0.00 | 31 | 1014.2 |
| 20260506165025 | 73 | 201 | 0.0 | 5.0 | 0.00 | 0.00 | 0.00 | 32 | 1014.2 |
| 20260506164539 | 73 | 198 | 1.0 | 5.0 | 0.00 | 0.00 | 0.00 | 32 | 1014.2 |
| 20260506164024 | 72 | 181 | 1.0 | 7.0 | 0.00 | 0.00 | 0.00 | 32 | 1014.1 |
| 20260506163524 | 72 | 0 | 2.0 | 8.0 | 0.00 | 0.00 | 0.00 | 32 | 1014.1 |
| 20260506163039 | 72 | 227 | 3.0 | 8.0 | 0.00 | 0.00 | 0.00 | 33 | 1014.1 |
| 20260506162525 | 71 | 213 | 0.0 | 4.0 | 0.00 | 0.00 | 0.00 | 33 | 1014.1 |
| 20260506162024 | 72 | 312 | 1.0 | 4.0 | 0.00 | 0.00 | 0.00 | 33 | 1014.1 |
| 20260506161539 | 72 | 327 | 1.0 | 4.0 | 0.00 | 0.00 | 0.00 | 32 | 1014.0 |
| 20260506161025 | 72 | 0 | 0.0 | 5.0 | 0.00 | 0.00 | 0.00 | 33 | 1014.0 |
| 20260506160524 | 72 | 147 | 1.0 | 5.0 | 0.00 | 0.00 | 0.00 | 33 | 1014.0 |
| 20260506160054 | 71 | 171 | 1.0 | 5.0 | 0.00 | 0.00 | 0.00 | 34 | 1014.0 |
| 20260506155524 | 71 | 48 | 1.0 | 5.0 | 0.00 | 0.00 | 0.00 | 34 | 1014.0 |
| 20260506155024 | 70 | 136 | 1.0 | 4.0 | 0.00 | 0.00 | 0.00 | 35 | 1014.1 |
| 20260506154544 | 69 | 0 | 0.0 | 3.0 | 0.00 | 0.00 | 0.00 | 35 | 1014.1 |
| 20260506154025 | 69 | 200 | 1.0 | 4.0 | 0.00 | 0.00 | 0.00 | 36 | 1014.1 |
| 20260506153523 | 68 | 0 | 1.0 | 4.0 | 0.00 | 0.00 | 0.00 | 37 | 1014.1 |
| 20260506153039 | 68 | 336 | 1.0 | 3.0 | 0.00 | 0.00 | 0.00 | 37 | 1014.0 |
| 20260506152524 | 68 | 302 | 1.0 | 4.0 | 0.00 | 0.00 | 0.00 | 38 | 1014.0 |
| 20260506152028 | 67 | 328 | 0.0 | 4.0 | 0.00 | 0.00 | 0.00 | 38 | 1014.0 |
| 20260506151539 | 67 | 317 | 1.0 | 4.0 | 0.00 | 0.00 | 0.00 | 38 | 1014.1 |
| 20260506151024 | 67 | 329 | 1.0 | 4.0 | 0.00 | 0.00 | 0.00 | 39 | 1014.0 |
| 20260506150524 | 66 | 0 | 0.0 | 4.0 | 0.00 | 0.00 | 0.00 | 40 | 1014.0 |
| 20260506150038 | 66 | 255 | 0.0 | 3.0 | 0.00 | 0.00 | 0.00 | 41 | 1014.0 |
| 20260506145525 | 65 | 0 | 0.0 | 3.0 | 0.00 | 0.00 | 0.00 | 41 | 1013.9 |
| 20260506145025 | 65 | 304 | 0.0 | 3.0 | 0.00 | 0.00 | 0.00 | 41 | 1013.9 |
| 20260506144545 | 65 | 327 | 0.0 | 3.0 | 0.00 | 0.00 | 0.00 | 41 | 1013.8 |
| 20260506144024 | 65 | 94 | 0.0 | 2.0 | 0.00 | 0.00 | 0.00 | 41 | 1013.9 |
| 20260506143525 | 65 | 0 | 0.0 | 1.0 | 0.00 | 0.00 | 0.00 | 41 | 1013.8 |
| 20260506143039 | 65 | 0 | 0.0 | 2.0 | 0.00 | 0.00 | 0.00 | 41 | 1013.8 |
| 20260506142525 | 64 | 0 | 0.0 | 2.0 | 0.00 | 0.00 | 0.00 | 43 | 1013.8 |
| 20260506142025 | 64 | 0 | 0.0 | 2.0 | 0.00 | 0.00 | 0.00 | 44 | 1013.7 |
| 20260506141540 | 63 | 101 | 0.0 | 2.0 | 0.00 | 0.00 | 0.00 | 45 | 1013.7 |
| 20260506141027 | 62 | 0 | 0.0 | 1.0 | 0.00 | 0.00 | 0.00 | 46 | 1013.5 |
| 20260506140525 | 61 | 0 | 0.0 | 2.0 | 0.00 | 0.00 | 0.00 | 46 | 1013.5 |
| 20260506140039 | 61 | 0 | 0.0 | 3.0 | 0.00 | 0.00 | 0.00 | 47 | 1013.5 |
| 20260506135525 | 60 | 155 | 0.0 | 5.0 | 0.00 | 0.00 | 0.00 | 47 | 1013.3 |
| 20260506135024 | 60 | 154 | 0.0 | 5.0 | 0.00 | 0.00 | 0.00 | 48 | 1013.4 |
| 20260506134538 | 59 | 154 | 2.0 | 4.0 | 0.00 | 0.00 | 0.00 | 48 | 1013.4 |
| 20260506134024 | 59 | 155 | 0.0 | 2.0 | 0.00 | 0.00 | 0.00 | 50 | 1013.3 |
| 20260506133527 | 59 | 0 | 0.0 | 2.0 | 0.00 | 0.00 | 0.00 | 49 | 1013.3 |
| 20260506133041 | 58 | 0 | 0.0 | 2.0 | 0.00 | 0.00 | 0.00 | 50 | 1013.3 |
| 20260506132525 | 58 | 0 | 0.0 | 2.0 | 0.00 | 0.00 | 0.00 | 50 | 1013.2 |
| 20260506132024 | 57 | 0 | 0.0 | 2.0 | 0.00 | 0.00 | 0.00 | 51 | 1013.2 |
| 20260506131604 | 57 | 0 | 0.0 | 3.0 | 0.00 | 0.00 | 0.00 | 51 | 1013.2 |
| 20260506131025 | 57 | 0 | 1.0 | 3.0 | 0.00 | 0.00 | 0.00 | 51 | 1013.2 |
| 20260506130527 | 56 | 0 | 0.0 | 5.0 | 0.00 | 0.00 | 0.00 | 52 | 1013.1 |
| 20260506130043 | 56 | 154 | 1.0 | 5.0 | 0.00 | 0.00 | 0.00 | 52 | 1013.0 |
| 20260506125525 | 55 | 154 | 2.0 | 5.0 | 0.00 | 0.00 | 0.00 | 52 | 1013.0 |
| 20260506125025 | 55 | 154 | 2.0 | 5.0 | 0.00 | 0.00 | 0.00 | 53 | 1012.8 |
| 20260506124538 | 55 | 160 | 3.0 | 5.0 | 0.00 | 0.00 | 0.00 | 53 | 1012.8 |
| 20260506124024 | 55 | 146 | 2.0 | 4.0 | 0.00 | 0.00 | 0.00 | 53 | 1012.8 |
| 20260506123526 | 55 | 146 | 1.0 | 4.0 | 0.00 | 0.00 | 0.00 | 53 | 1012.7 |
| 20260506123038 | 55 | 146 | 1.0 | 5.0 | 0.00 | 0.00 | 0.00 | 53 | 1012.7 |
| 20260506122524 | 55 | 146 | 1.0 | 6.0 | 0.00 | 0.00 | 0.00 | 53 | 1012.4 |
| 20260506122025 | 55 | 146 | 2.0 | 6.0 | 0.00 | 0.00 | 0.00 | 52 | 1012.5 |
| 20260506121543 | 55 | 165 | 2.0 | 5.0 | 0.00 | 0.00 | 0.00 | 53 | 1012.4 |
| 20260506121025 | 55 | 157 | 2.0 | 5.0 | 0.00 | 0.00 | 0.00 | 52 | 1012.3 |
| 20260506120527 | 55 | 148 | 3.0 | 5.0 | 0.00 | 0.00 | 0.00 | 52 | 1012.3 |
| 20260506120040 | 56 | 142 | 1.0 | 5.0 | 0.00 | 0.00 | 0.00 | 53 | 1012.3 |
| 20260506115525 | 56 | 142 | 2.0 | 5.0 | 0.00 | 0.00 | 0.00 | 52 | 1012.2 |
| 20260506115024 | 56 | 159 | 2.0 | 4.0 | 0.00 | 0.00 | 0.00 | 53 | 1012.2 |
| 20260506114539 | 56 | 157 | 1.0 | 3.0 | 0.00 | 0.00 | 0.00 | 53 | 1012.2 |
| 20260506114026 | 56 | 157 | 1.0 | 3.0 | 0.00 | 0.00 | 0.00 | 53 | 1012.2 |
| 20260506113525 | 56 | 157 | 1.0 | 3.0 | 0.00 | 0.00 | 0.00 | 54 | 1012.2 |
| 20260506113039 | 56 | 157 | 1.0 | 3.0 | 0.00 | 0.00 | 0.00 | 53 | 1012.2 |
| 20260506112524 | 56 | 0 | 0.0 | 2.0 | 0.00 | 0.00 | 0.00 | 54 | 1012.1 |
| 20260506112024 | 56 | 157 | 1.0 | 2.0 | 0.00 | 0.00 | 0.00 | 53 | 1012.1 |
| 20260506111538 | 57 | 0 | 1.0 | 2.0 | 0.00 | 0.00 | 0.00 | 53 | 1012.1 |
| 20260506111028 | 57 | 157 | 0.0 | 3.0 | 0.00 | 0.00 | 0.00 | 53 | 1012.1 |
| 20260506110527 | 57 | 157 | 1.0 | 3.0 | 0.00 | 0.00 | 0.00 | 52 | 1012.1 |
| 20260506110042 | 57 | 0 | 0.0 | 3.0 | 0.00 | 0.00 | 0.00 | 52 | 1012.0 |
| 20260506105524 | 57 | 157 | 0.0 | 5.0 | 0.00 | 0.00 | 0.00 | 53 | 1012.2 |
| 20260506105027 | 57 | 157 | 1.0 | 7.0 | 0.00 | 0.00 | 0.00 | 53 | 1012.1 |
| 20260506104546 | 57 | 157 | 3.0 | 7.0 | 0.00 | 0.00 | 0.00 | 54 | 1012.0 |
| 20260506104022 | 57 | 152 | 0.0 | 3.0 | 0.00 | 0.00 | 0.00 | 55 | 1012.0 |
| 20260506103524 | 57 | 0 | 0.0 | 5.0 | 0.00 | 0.00 | 0.00 | 56 | 1012.0 |
| 20260506103041 | 57 | 152 | 1.0 | 5.0 | 0.00 | 0.00 | 0.00 | 55 | 1011.9 |
| 20260506102525 | 57 | 152 | 2.0 | 4.0 | 0.00 | 0.00 | 0.00 | 56 | 1011.9 |
| 20260506102025 | 57 | 0 | 0.0 | 5.0 | 0.00 | 0.00 | 0.00 | 56 | 1011.9 |
| 20260506101539 | 58 | 194 | 1.0 | 5.0 | 0.00 | 0.00 | 0.00 | 55 | 1011.9 |
| 20260506101024 | 58 | 171 | 3.0 | 5.0 | 0.00 | 0.00 | 0.00 | 55 | 1011.8 |
| 20260506100525 | 57 | 119 | 1.0 | 3.0 | 0.00 | 0.00 | 0.00 | 55 | 1011.8 |
| 20260506100040 | 58 | 119 | 1.0 | 3.0 | 0.00 | 0.00 | 0.00 | 55 | 1011.8 |
| 20260506095524 | 58 | 0 | 0.0 | 3.0 | 0.00 | 0.00 | 0.00 | 54 | 1011.9 |
| 20260506095024 | 58 | 0 | 1.0 | 3.0 | 0.00 | 0.00 | 0.00 | 54 | 1011.8 |
| 20260506094554 | 58 | 0 | 1.0 | 3.0 | 0.00 | 0.00 | 0.00 | 54 | 1011.8 |
| 20260506094028 | 58 | 119 | 1.0 | 3.0 | 0.00 | 0.00 | 0.00 | 54 | 1011.8 |
| 20260506093524 | 58 | 119 | 1.0 | 3.0 | 0.00 | 0.00 | 0.00 | 54 | 1011.7 |
| 20260506093040 | 58 | 0 | 0.0 | 3.0 | 0.00 | 0.00 | 0.00 | 54 | 1011.7 |
| 20260506092525 | 58 | 119 | 1.0 | 3.0 | 0.00 | 0.00 | 0.00 | 53 | 1011.6 |
| 20260506092028 | 58 | 0 | 0.0 | 2.0 | 0.00 | 0.00 | 0.00 | 53 | 1011.6 |
| 20260506091540 | 58 | 0 | 0.0 | 3.0 | 0.00 | 0.00 | 0.00 | 53 | 1011.5 |
| 20260506091025 | 59 | 119 | 0.0 | 3.0 | 0.00 | 0.00 | 0.00 | 53 | 1011.5 |
| 20260506090524 | 59 | 119 | 2.0 | 3.0 | 0.00 | 0.00 | 0.00 | 53 | 1011.5 |
| 20260506090039 | 59 | 0 | 0.0 | 3.0 | 0.00 | 0.00 | 0.00 | 54 | 1011.5 |
| 20260506085524 | 59 | 119 | 1.0 | 3.0 | 0.00 | 0.05 | 0.00 | 53 | 1011.4 |
| 20260506085024 | 59 | 0 | 0.0 | 2.0 | 0.00 | 0.05 | 0.00 | 53 | 1011.4 |
| 20260506084542 | 59 | 0 | 0.0 | 2.0 | 0.00 | 0.05 | 0.00 | 53 | 1011.4 |
| 20260506084024 | 59 | 119 | 0.0 | 2.0 | 0.00 | 0.05 | 0.00 | 52 | 1011.4 |
| 20260506083524 | 60 | 0 | 0.0 | 2.0 | 0.00 | 0.05 | 0.00 | 52 | 1011.4 |